Time,TemperatureF,DewpointF,PressureIn,WindDirection,WindDirectionDegrees,WindSpeedMPH,WindSpeedGustMPH,Humidity,HourlyPrecipIn,Conditions,Clouds,dailyrainin,SoftwareType,DateUTC
2013-04-20 00:02:00,27.0,18.0,-100.00,SSE,165,4.0,5.0,69,-99.99,,,-99.99,,2013-04-20 05:02:00,
2013-04-20 00:32:00,27.0,18.0,-100.00,SSE,165,4.0,5.0,69,-99.99,,,-99.99,,2013-04-20 05:32:00,
2013-04-20 00:43:00,27.0,18.0,-100.00,SSE,165,4.0,5.0,69,-99.99,,,-99.99,,2013-04-20 05:43:00,
2013-04-20 00:52:00,27.0,18.0,-100.00,SSE,165,4.0,5.0,69,-99.99,,,-99.99,,2013-04-20 05:52:00,
2013-04-20 01:32:00,25.0,18.0,-100.00,East,95,6.0,7.0,73,-99.99,,,-99.99,,2013-04-20 06:32:00,
2013-04-20 01:42:00,25.0,18.0,-100.00,East,95,6.0,7.0,73,-99.99,,,-99.99,,2013-04-20 06:42:00,
2013-04-20 01:52:00,25.0,18.0,-100.00,East,95,6.0,7.0,73,-99.99,,,-99.99,,2013-04-20 06:52:00,
2013-04-20 02:01:00,25.0,18.0,-100.00,East,95,6.0,7.0,73,-99.99,,,-99.99,,2013-04-20 07:01:00,
2013-04-20 02:32:00,23.0,17.0,-100.00,East,100,6.0,6.0,76,-99.99,,,-99.99,,2013-04-20 07:32:00,
2013-04-20 02:42:00,23.0,17.0,-100.00,East,100,6.0,6.0,76,-99.99,,,-99.99,,2013-04-20 07:42:00,
2013-04-20 02:52:00,23.0,17.0,-100.00,East,100,6.0,6.0,76,-99.99,,,-99.99,,2013-04-20 07:52:00,
2013-04-20 03:01:00,23.0,17.0,-100.00,East,100,6.0,6.0,76,-99.99,,,-99.99,,2013-04-20 08:01:00,
2013-04-20 03:32:00,23.0,17.0,-100.00,East,90,7.0,8.0,76,-99.99,,,-99.99,,2013-04-20 08:32:00,
2013-04-20 03:42:00,23.0,17.0,-100.00,East,90,7.0,8.0,76,-99.99,,,-99.99,,2013-04-20 08:42:00,
2013-04-20 03:52:00,23.0,17.0,-100.00,East,90,7.0,8.0,76,-99.99,,,-99.99,,2013-04-20 08:52:00,
2013-04-20 04:01:00,23.0,17.0,-100.00,East,90,7.0,8.0,76,-99.99,,,-99.99,,2013-04-20 09:01:00,
2013-04-20 04:02:00,22.0,16.0,-100.00,ESE,105,4.0,6.0,77,-99.99,,,-99.99,,2013-04-20 09:02:00,
2013-04-20 04:33:00,22.0,16.0,-100.00,ESE,105,4.0,6.0,77,-99.99,,,-99.99,,2013-04-20 09:33:00,
2013-04-20 04:43:00,22.0,16.0,-100.00,ESE,105,4.0,6.0,77,-99.99,,,-99.99,,2013-04-20 09:43:00,
2013-04-20 04:53:00,22.0,16.0,-100.00,ESE,105,4.0,6.0,77,-99.99,,,-99.99,,2013-04-20 09:53:00,
2013-04-20 05:02:00,21.0,15.0,-100.00,East,100,4.0,5.0,78,-99.99,,,-99.99,,2013-04-20 10:02:00,
2013-04-20 05:33:00,21.0,15.0,-100.00,East,100,4.0,5.0,78,-99.99,,,-99.99,,2013-04-20 10:33:00,
2013-04-20 05:42:00,21.0,15.0,-100.00,East,100,4.0,5.0,78,-99.99,,,-99.99,,2013-04-20 10:42:00,
2013-04-20 05:53:00,21.0,15.0,-100.00,East,100,4.0,5.0,78,-99.99,,,-99.99,,2013-04-20 10:53:00,
2013-04-20 06:02:00,22.0,16.0,-100.00,ESE,105,6.0,6.0,79,-99.99,,,-99.99,,2013-04-20 11:02:00,
2013-04-20 06:32:00,22.0,16.0,-100.00,ESE,105,6.0,6.0,79,-99.99,,,-99.99,,2013-04-20 11:32:00,
2013-04-20 06:42:00,22.0,16.0,-100.00,ESE,105,6.0,6.0,79,-99.99,,,-99.99,,2013-04-20 11:42:00,
2013-04-20 06:53:00,22.0,16.0,-100.00,ESE,105,6.0,6.0,79,-99.99,,,-99.99,,2013-04-20 11:53:00,
2013-04-20 07:02:00,22.0,17.0,-100.00,ESE,105,7.0,8.0,82,-99.99,,,-99.99,,2013-04-20 12:02:00,
2013-04-20 07:32:00,22.0,17.0,-100.00,ESE,105,7.0,8.0,82,-99.99,,,-99.99,,2013-04-20 12:32:00,
2013-04-20 07:42:00,22.0,17.0,-100.00,ESE,105,7.0,8.0,82,-99.99,,,-99.99,,2013-04-20 12:42:00,
2013-04-20 07:52:00,22.0,17.0,-100.00,ESE,105,7.0,8.0,82,-99.99,,,-99.99,,2013-04-20 12:52:00,
2013-04-20 08:02:00,23.0,17.0,-100.00,SE,135,5.0,9.0,77,-99.99,,,-99.99,,2013-04-20 13:02:00,
2013-04-20 08:32:00,23.0,17.0,-100.00,SE,135,5.0,9.0,77,-99.99,,,-99.99,,2013-04-20 13:32:00,
2013-04-20 08:42:00,23.0,17.0,-100.00,SE,135,5.0,9.0,77,-99.99,,,-99.99,,2013-04-20 13:42:00,
2013-04-20 08:52:00,23.0,17.0,-100.00,SE,135,5.0,9.0,77,-99.99,,,-99.99,,2013-04-20 13:52:00,
2013-04-20 09:32:00,27.0,18.0,-100.00,SSE,160,10.0,13.0,69,-99.99,,,-99.99,,2013-04-20 14:32:00,
2013-04-20 09:42:00,27.0,18.0,-100.00,SSE,160,10.0,13.0,69,-99.99,,,-99.99,,2013-04-20 14:42:00,
2013-04-20 09:52:00,27.0,18.0,-100.00,SSE,160,10.0,13.0,69,-99.99,,,-99.99,,2013-04-20 14:52:00,
2013-04-20 10:01:00,27.0,18.0,-100.00,SSE,160,10.0,13.0,69,-99.99,,,-99.99,,2013-04-20 15:01:00,
2013-04-20 10:02:00,29.0,18.0,-100.00,SSE,150,9.0,12.0,64,-99.99,,,-99.99,,2013-04-20 15:02:00,
2013-04-20 10:34:00,29.0,18.0,-100.00,SSE,150,9.0,12.0,64,-99.99,,,-99.99,,2013-04-20 15:34:00,
2013-04-20 10:43:00,29.0,18.0,-100.00,SSE,150,9.0,12.0,64,-99.99,,,-99.99,,2013-04-20 15:43:00,
2013-04-20 10:53:00,29.0,18.0,-100.00,SSE,150,9.0,12.0,64,-99.99,,,-99.99,,2013-04-20 15:53:00,
2013-04-20 11:02:00,31.0,20.0,-100.00,SSE,165,5.0,8.0,62,-99.99,,,-99.99,,2013-04-20 16:02:00,
2013-04-20 11:33:00,31.0,20.0,-100.00,SSE,165,5.0,8.0,62,-99.99,,,-99.99,,2013-04-20 16:33:00,
2013-04-20 11:42:00,31.0,20.0,-100.00,SSE,165,5.0,8.0,62,-99.99,,,-99.99,,2013-04-20 16:42:00,
2013-04-20 11:53:00,31.0,20.0,-100.00,SSE,165,5.0,8.0,62,-99.99,,,-99.99,,2013-04-20 16:53:00,
2013-04-20 13:02:00,34.0,21.0,-100.00,SE,145,9.0,13.0,59,-99.99,,,-99.99,,2013-04-20 18:02:00,
2013-04-20 13:32:00,34.0,21.0,-100.00,SE,145,9.0,13.0,59,-99.99,,,-99.99,,2013-04-20 18:32:00,
2013-04-20 13:42:00,34.0,21.0,-100.00,SE,145,9.0,13.0,59,-99.99,,,-99.99,,2013-04-20 18:42:00,
2013-04-20 13:52:00,34.0,21.0,-100.00,SE,145,9.0,13.0,59,-99.99,,,-99.99,,2013-04-20 18:52:00,
2013-04-20 15:32:00,34.0,23.0,-100.00,SE,145,11.0,14.0,64,-99.99,,,-99.99,,2013-04-20 20:32:00,
2013-04-20 15:42:00,34.0,23.0,-100.00,SE,145,11.0,14.0,64,-99.99,,,-99.99,,2013-04-20 20:42:00,
2013-04-20 15:52:00,34.0,23.0,-100.00,SE,145,11.0,14.0,64,-99.99,,,-99.99,,2013-04-20 20:52:00,
2013-04-20 16:01:00,34.0,23.0,-100.00,SE,145,11.0,14.0,64,-99.99,,,-99.99,,2013-04-20 21:01:00,
2013-04-20 16:02:00,35.0,27.0,-100.00,South,170,8.0,12.0,71,-99.99,,,-99.99,,2013-04-20 21:02:00,
2013-04-20 16:33:00,35.0,27.0,-100.00,South,170,8.0,12.0,71,-99.99,,,-99.99,,2013-04-20 21:33:00,
2013-04-20 16:43:00,35.0,27.0,-100.00,South,170,8.0,12.0,71,-99.99,,,-99.99,,2013-04-20 21:43:00,
2013-04-20 16:53:00,35.0,27.0,-100.00,South,170,8.0,12.0,71,-99.99,,,-99.99,,2013-04-20 21:53:00,
2013-04-20 17:02:00,34.0,28.0,-100.00,SE,140,10.0,12.0,78,-99.99,,,-99.99,,2013-04-20 22:02:00,
2013-04-20 17:33:00,34.0,28.0,-100.00,SE,140,10.0,12.0,78,-99.99,,,-99.99,,2013-04-20 22:33:00,
2013-04-20 17:42:00,34.0,28.0,-100.00,SE,140,10.0,12.0,78,-99.99,,,-99.99,,2013-04-20 22:42:00,
2013-04-20 17:53:00,34.0,28.0,-100.00,SE,140,10.0,12.0,78,-99.99,,,-99.99,,2013-04-20 22:53:00,
2013-04-20 19:32:00,35.0,32.0,-100.00,South,175,9.0,13.0,91,-99.99,,,-99.99,,2013-04-21 00:32:00,
2013-04-20 19:42:00,35.0,32.0,-100.00,South,175,9.0,13.0,91,-99.99,,,-99.99,,2013-04-21 00:42:00,
2013-04-20 19:52:00,35.0,32.0,-100.00,South,175,9.0,13.0,91,-99.99,,,-99.99,,2013-04-21 00:52:00,
2013-04-20 20:01:00,35.0,32.0,-100.00,South,175,9.0,13.0,91,-99.99,,,-99.99,,2013-04-21 01:01:00,
2013-04-20 20:02:00,34.0,33.0,-100.00,South,170,11.0,12.0,98,-99.99,,,-99.99,,2013-04-21 01:02:00,
2013-04-20 20:32:00,34.0,33.0,-100.00,South,170,11.0,12.0,98,-99.99,,,-99.99,,2013-04-21 01:32:00,
2013-04-20 20:42:00,34.0,33.0,-100.00,South,170,11.0,12.0,98,-99.99,,,-99.99,,2013-04-21 01:42:00,
2013-04-20 20:52:00,34.0,33.0,-100.00,South,170,11.0,12.0,98,-99.99,,,-99.99,,2013-04-21 01:52:00,
2013-04-20 21:32:00,33.0,23.0,-100.00,SSE,160,12.0,17.0,68,-99.99,,,-99.99,,2013-04-21 02:32:00,
2013-04-20 21:42:00,33.0,23.0,-100.00,SSE,160,12.0,17.0,68,-99.99,,,-99.99,,2013-04-21 02:42:00,
2013-04-20 21:52:00,33.0,23.0,-100.00,SSE,160,12.0,17.0,68,-99.99,,,-99.99,,2013-04-21 02:52:00,
2013-04-20 22:01:00,33.0,23.0,-100.00,SSE,160,12.0,17.0,68,-99.99,,,-99.99,,2013-04-21 03:01:00,
2013-04-20 22:02:00,33.0,32.0,-100.00,South,180,11.0,15.0,99,-99.99,,,-99.99,,2013-04-21 03:02:00,
2013-04-20 22:33:00,33.0,32.0,-100.00,South,180,11.0,15.0,99,-99.99,,,-99.99,,2013-04-21 03:33:00,
2013-04-20 22:42:00,33.0,32.0,-100.00,South,180,11.0,15.0,99,-99.99,,,-99.99,,2013-04-21 03:42:00,
2013-04-20 22:52:00,33.0,32.0,-100.00,South,180,11.0,15.0,99,-99.99,,,-99.99,,2013-04-21 03:52:00,
2013-04-20 23:02:00,32.0,32.0,-100.00,South,175,6.0,10.0,99,-99.99,,,-99.99,,2013-04-21 04:02:00,
2013-04-20 23:33:00,32.0,32.0,-100.00,South,175,6.0,10.0,99,-99.99,,,-99.99,,2013-04-21 04:33:00,
2013-04-20 23:42:00,32.0,32.0,-100.00,South,175,6.0,10.0,99,-99.99,,,-99.99,,2013-04-21 04:42:00,
2013-04-20 23:53:00,32.0,32.0,-100.00,South,175,6.0,10.0,99,-99.99,,,-99.99,,2013-04-21 04:53:00,